[[{"header":{"parameterUnit":"m.s-1","parameterCategory":1,"la1":30.2991,"la2":30.254,"lo1":-89.0895,"lo2":-89.0444,"dy":0.0017,"dx":0.0017,"nx":28,"ny":28,"refTime":"2024-10-10T03:00:00:Z","depth":0,"parameterNumber":2,"parameterNumberName":"U-component_of_WINDS"},"data":[0,0,0,0,0,0,0,0,0,0,0,0,0,0,0,0,0,0,0,0,0,0,0,0,0,0,0,0,0,0,0,0,0,0,0,0,0,0,0,0,0,0,0,0,0,0,0,0,0,0,0,0,0,0,0,0,0,0,-0.1519,-0.1519,0,-0.1561,-0.1561,-0.1562,-0.1539,-0.1538,-0.1537,-0.1536,-0.158,-0.1582,-0.1584,0,0,0,0,0,0,0,0,0,0,0,0,0,-0.142,-0.1422,-0.1519,-0.1519,-0.152,-0.1561,-0.1561,-0.1562,-0.1539,-0.1538,-0.1537,-0.1535,-0.1579,-0.1582,-0.1584,0,0,0,0,0,0,0,0,0,0,0,0,0,-0.1462,-0.1422,-0.1519,-0.1514,-0.1514,-0.1561,-0.1561,-0.1562,-0.154,-0.1538,-0.1536,-0.1535,-0.1578,-0.1581,-0.1585,-0.1639,0,0,-0.1595,-0.1596,0,0,0,0,0,0,0,0,-0.146,-0.1466,-0.1514,-0.1514,-0.1514,-0.1543,-0.1542,-0.1588,-0.154,-0.153,-0.1536,-0.1534,-0.1569,-0.1573,-0.1585,-0.1642,-0.1643,-0.1595,-0.1597,-0.1599,-0.16,0,0,0,0,0,0,0,-0.1457,-0.1464,-0.1535,-0.1515,-0.1515,-0.1509,-0.1513,-0.1551,-0.1559,-0.1531,-0.1529,-0.1534,-0.1569,-0.1581,-0.1585,-0.1644,-0.1595,-0.1598,-0.16,-0.1601,-0.1748,-0.175,0,0,0,0,0,0,-0.1454,-0.1462,-0.1534,-0.1537,-0.1482,-0.1512,-0.1517,-0.1535,-0.1558,-0.156,-0.1536,-0.1533,-0.1577,-0.1582,-0.1587,-0.1653,-0.1599,-0.1602,-0.1604,-0.1746,-0.1748,-0.175,0,0,0,0,0,0,-0.1452,-0.1461,-0.1532,-0.1499,-0.1508,-0.1516,-0.1537,-0.1537,-0.155,-0.1562,-0.1563,-0.1547,-0.1575,-0.1582,-0.1626,-0.1654,-0.1603,-0.1606,-0.1744,-0.1747,-0.1749,-0.1786,0,0,0,0,0,0,-0.145,-0.146,-0.1481,-0.15,-0.1509,-0.1572,-0.1538,-0.1539,-0.1556,-0.1553,-0.1573,-0.1575,-0.1575,-0.1622,-0.163,-0.1658,-0.1609,-0.1741,-0.1745,-0.1748,-0.1782,-0.1789,-0.1796,0,0,0,0,0,-0.1446,-0.149,-0.1483,-0.1492,-0.1536,-0.1573,-0.1579,-0.1577,-0.1558,-0.1579,-0.1587,-0.1574,-0.1649,-0.1626,-0.1635,-0.1665,-0.174,-0.1744,-0.1748,-0.1779,-0.1788,-0.1795,0,0,0,0,0,0,-0.1476,-0.1493,-0.1484,-0.1536,-0.1553,-0.1569,-0.1596,-0.1587,-0.1611,-0.1607,-0.1604,-0.1609,-0.1655,-0.1664,-0.1638,-0.1719,-0.1692,-0.1698,-0.1712,-0.1721,-0.1727,-0.1725,-0.1612,0,0,0,0,0,-0.1488,-0.1517,-0.153,-0.1574,-0.1583,-0.1588,-0.1604,-0.1601,-0.162,-0.1627,-0.1638,-0.1656,-0.1684,-0.1702,-0.1728,-0.1782,-0.1787,-0.1807,-0.1814,-0.1819,-0.1825,-0.1855,-0.1864,-0.1764,-0.1764,-0.1764,0,0,-0.1515,-0.1527,-0.1546,-0.158,-0.1593,-0.1624,-0.1595,-0.1628,-0.165,-0.1632,-0.1675,-0.1683,-0.1703,-0.1753,-0.1775,-0.1762,-0.1854,-0.1825,-0.1829,-0.1832,-0.186,-0.187,-0.1878,-0.1767,-0.1767,-0.1766,0,0,-0.1578,-0.159,-0.1628,-0.1642,-0.1662,-0.1665,-0.1674,-0.1691,-0.1696,-0.1739,-0.1726,-0.1752,-0.18,-0.1815,-0.1829,-0.1896,-0.1886,-0.1905,-0.1941,-0.197,-0.1978,-0.1985,-0.201,-0.2019,-0.191,-0.191,-0.191,0,-0.1609,-0.1654,-0.1649,-0.1683,-0.1699,-0.1683,-0.1722,-0.1735,-0.1763,-0.1774,-0.1758,-0.1818,-0.183,-0.1883,-0.19,-0.1911,-0.1922,-0.1903,-0.1977,-0.1984,-0.199,-0.2014,-0.2024,-0.1912,-0.1912,-0.1912,-0.1912,0,-0.169,-0.1721,-0.175,-0.1777,-0.1795,-0.1832,-0.1833,-0.1852,-0.1847,-0.1851,-0.1895,-0.1909,-0.1938,-0.1949,-0.1945,-0.2002,-0.1993,-0.1977,-0.195,-0.2002,-0.2025,-0.2034,-0.1916,-0.1915,-0.1914,-0.1914,0,0,-0.1776,-0.1799,-0.181,-0.1822,-0.1842,-0.1866,-0.1901,-0.1929,-0.1946,-0.1965,-0.1995,-0.2035,-0.202,-0.2036,-0.2032,-0.2057,-0.2111,-0.2038,-0.2039,-0.2053,-0.2175,-0.2189,-0.2199,-0.2103,-0.2105,-0.2106,-0.2174,0,-0.1842,-0.1904,-0.1901,-0.1959,-0.1988,-0.1972,-0.2003,-0.2018,-0.2023,-0.2048,-0.2053,-0.2082,-0.2059,-0.2069,-0.2093,-0.21,-0.2136,-0.2094,-0.2132,-0.2134,-0.213,-0.2211,-0.2225,-0.2289,-0.2183,-0.2184,-0.2185,0,-0.1929,-0.195,-0.2011,-0.2027,-0.2039,-0.2067,-0.2091,-0.2115,-0.2132,-0.2134,-0.2151,-0.2143,-0.2179,-0.2148,-0.2198,-0.2169,-0.2184,-0.219,-0.2192,-0.2197,-0.2164,-0.222,-0.2309,-0.2319,-0.2199,-0.2198,-0.2197,0,-0.1987,-0.2031,-0.2073,-0.2084,-0.2103,-0.2123,-0.2131,-0.2147,-0.2163,-0.2185,-0.2196,-0.2221,-0.2235,-0.2255,-0.2254,-0.2232,-0.2304,-0.2274,-0.2307,-0.2307,-0.2325,-0.2324,-0.2419,-0.2331,-0.2331,-0.2331,-0.2331,0,-0.2062,-0.2101,-0.21,-0.2126,-0.2168,-0.2163,-0.2205,-0.2212,-0.2226,-0.2253,-0.224,-0.2266,-0.2262,-0.2288,-0.2287,-0.2329,-0.2335,-0.2337,-0.2337,-0.234,-0.234,-0.2351,-0.2348,-0.2334,-0.2333,-0.2332,-0.2332,0,-0.2136,-0.2137,-0.2182,-0.2195,-0.22,-0.223,-0.2242,-0.2267,-0.2269,-0.2304,-0.2312,-0.2316,-0.2346,-0.2346,-0.238,-0.238,-0.2431,-0.2425,-0.2425,-0.2425,-0.2459,-0.2456,-0.2566,-0.2581,-0.2481,-0.2482,-0.2483,0,-0.2185,-0.2214,-0.2231,-0.2248,-0.2258,-0.2285,-0.2302,-0.2298,-0.2316,-0.2337,-0.2359,-0.2387,-0.241,-0.2458,-0.2465,-0.249,-0.2486,-0.2522,-0.249,-0.2492,-0.2488,-0.2487,-0.2491,-0.253,-0.2531,-0.2532,-0.2532,0,-0.2273,-0.2271,-0.2296,-0.2321,-0.2341,-0.236,-0.2378,-0.2393,-0.239,-0.2411,-0.2441,-0.2458,-0.2492,-0.2521,-0.2546,-0.2555,-0.2544,-0.2542,-0.2552,-0.2556,-0.2556,-0.2558,-0.2445,-0.254,-0.254,-0.2539,-0.2539,-0.2538,-0.2337,-0.2362,-0.2377,-0.2405,-0.2418,-0.2434,-0.2458,-0.2463,-0.2488,-0.2516,-0.2511,-0.2545,-0.2561,-0.2593,-0.2603,-0.263,-0.2617,-0.263,-0.2634,-0.2638,-0.2642,-0.2549,-0.2634,-0.2634,-0.2633,-0.2633,-0.2633,0,-0.2425,-0.2434,-0.2459,-0.2484,-0.2506,-0.2492,-0.2511,-0.253,-0.256,-0.2575,-0.2597,-0.2632,-0.2659,-0.2666,-0.2693,-0.2712,-0.2708,-0.2719,-0.2719,-0.2721,-0.2651,-0.2642,-0.2723,-0.2723,-0.2723,-0.2723,-0.2723,-0.2723,-0.2474,-0.2516,-0.2516,-0.2564,-0.2573,-0.2606,-0.2617,-0.2633,-0.2645,-0.2684,-0.2706,-0.2711,-0.2723,-0.275,-0.2774,-0.2775,-0.2786,-0.2801,-0.28,-0.2735,-0.2726,-0.2718,-0.2709,-0.2802,-0.2803,-0.2868,-0.2869,-0.2869]},{"header":{"parameterUnit":"m.s-1","parameterCategory":1,"la1":30.2991,"la2":30.254,"lo1":-89.0895,"lo2":-89.0444,"dy":0.0017,"dx":0.0017,"nx":28,"ny":28,"refTime":"2024-10-10T03:00:00:Z","depth":0,"parameterNumber":3,"parameterNumberName":"V-component_of_WINDS"},"data":[0,0,0,0,0,0,0,0,0,0,0,0,0,0,0,0,0,0,0,0,0,0,0,0,0,0,0,0,0,0,0,0,0,0,0,0,0,0,0,0,0,0,0,0,0,0,0,0,0,0,0,0,0,0,0,0,0,0,-5.0,-5.0002,0,-5.0109,-5.011,-5.0112,-5.0045,-5.0042,-5.0039,-5.0036,-5.0142,-5.0148,-5.0153,0,0,0,0,0,0,0,0,0,0,0,0,0,-4.973,-4.9735,-5.0,-5.0002,-5.0003,-5.0109,-5.011,-5.0112,-5.0046,-5.0042,-5.0038,-5.0035,-5.014,-5.0147,-5.0154,0,0,0,0,0,0,0,0,0,0,0,0,0,-4.9844,-4.9737,-5.0,-4.9983,-4.9983,-5.0109,-5.011,-5.0112,-5.0047,-5.0042,-5.0037,-5.0033,-5.0138,-5.0146,-5.0155,-5.0302,0,0,-5.0181,-5.0185,0,0,0,0,0,0,0,0,-4.9837,-4.9854,-4.9984,-4.9984,-4.9984,-5.0059,-5.0054,-5.0176,-5.0048,-5.0022,-5.0036,-5.0031,-5.0118,-5.0128,-5.0158,-5.0307,-5.0312,-5.0182,-5.0187,-5.0191,-5.0193,0,0,0,0,0,0,0,-4.983,-4.9849,-5.0043,-4.9986,-4.9986,-4.9968,-4.9979,-5.0077,-5.0095,-5.0024,-5.002,-5.0034,-5.0117,-5.015,-5.016,-5.0313,-5.0182,-5.0189,-5.0195,-5.0198,-5.0587,-5.0592,0,0,0,0,0,0,-4.9824,-4.9843,-5.004,-5.0046,-4.9898,-4.9977,-4.9989,-5.004,-5.0094,-5.0098,-5.0038,-5.003,-5.0138,-5.015,-5.0164,-5.034,-5.0191,-5.0199,-5.0204,-5.0582,-5.0588,-5.0594,0,0,0,0,0,0,-4.9818,-4.9842,-5.0035,-4.9943,-4.9967,-4.9987,-5.0044,-5.0044,-5.0078,-5.0104,-5.0106,-5.0069,-5.0135,-5.0152,-5.0268,-5.0342,-5.0203,-5.0211,-5.0576,-5.0584,-5.0591,-5.0693,0,0,0,0,0,0,-4.9811,-4.984,-4.9898,-4.9945,-4.9972,-5.014,-5.0048,-5.005,-5.0093,-5.0085,-5.0134,-5.0137,-5.0132,-5.0256,-5.0277,-5.0352,-5.0217,-5.0569,-5.0579,-5.0589,-5.0683,-5.0703,-5.072,0,0,0,0,0,-4.9801,-4.9921,-4.9901,-4.9925,-5.0044,-5.0145,-5.0159,-5.0153,-5.01,-5.0157,-5.0173,-5.0136,-5.0331,-5.0269,-5.0292,-5.037,-5.0565,-5.0577,-5.0588,-5.0674,-5.0699,-5.072,0,0,0,0,0,0,-4.988,-4.9927,-4.9905,-5.0044,-5.0091,-5.0133,-5.0205,-5.0179,-5.0241,-5.023,-5.0217,-5.0229,-5.0351,-5.0372,-5.0301,-5.0515,-5.0439,-5.0456,-5.0497,-5.0521,-5.0539,-5.0531,-5.0224,0,0,0,0,0,-4.9914,-4.9993,-5.0029,-5.0148,-5.0173,-5.0185,-5.0229,-5.022,-5.0267,-5.0286,-5.0311,-5.0357,-5.0428,-5.0475,-5.0542,-5.0685,-5.0694,-5.0751,-5.0769,-5.0784,-5.0799,-5.0876,-5.0901,-5.0632,-5.0632,-5.0632,0,0,-4.9984,-5.0019,-5.007,-5.0165,-5.02,-5.0281,-5.0202,-5.0291,-5.035,-5.0298,-5.0411,-5.0431,-5.0481,-5.0611,-5.067,-5.0633,-5.0875,-5.0799,-5.0811,-5.0818,-5.089,-5.0916,-5.0938,-5.064,-5.0639,-5.0637,0,0,-5.0153,-5.0189,-5.0292,-5.0329,-5.0384,-5.0391,-5.0416,-5.0462,-5.0474,-5.0587,-5.055,-5.0619,-5.0743,-5.078,-5.0815,-5.0998,-5.0966,-5.102,-5.1118,-5.1193,-5.1214,-5.1233,-5.1298,-5.1321,-5.1035,-5.1035,-5.1035,0,-5.0233,-5.0355,-5.0347,-5.044,-5.0482,-5.0441,-5.0544,-5.058,-5.0653,-5.0682,-5.064,-5.0794,-5.0825,-5.0963,-5.1008,-5.1038,-5.1065,-5.1015,-5.1212,-5.123,-5.1248,-5.131,-5.1334,-5.1041,-5.1041,-5.104,-5.1039,0,-5.045,-5.0535,-5.0612,-5.0686,-5.0737,-5.0834,-5.0839,-5.0891,-5.0878,-5.0889,-5.1004,-5.1039,-5.1113,-5.1145,-5.1132,-5.1282,-5.1257,-5.1214,-5.1137,-5.128,-5.1338,-5.1361,-5.105,-5.1048,-5.1046,-5.1045,0,0,-5.0672,-5.0742,-5.077,-5.0803,-5.086,-5.0925,-5.1019,-5.1093,-5.1138,-5.1189,-5.1268,-5.1373,-5.1334,-5.1374,-5.1364,-5.143,-5.1572,-5.1378,-5.1379,-5.1413,-5.1739,-5.1771,-5.1799,-5.1551,-5.1556,-5.1559,-5.1735,0,-5.0845,-5.1013,-5.1009,-5.1164,-5.1242,-5.1203,-5.1285,-5.1329,-5.1342,-5.1408,-5.1421,-5.1496,-5.1439,-5.1462,-5.1526,-5.1542,-5.1638,-5.1529,-5.1622,-5.1626,-5.1611,-5.1829,-5.1864,-5.2028,-5.1757,-5.1761,-5.1764,0,-5.1069,-5.1131,-5.1294,-5.1341,-5.1373,-5.1447,-5.1514,-5.1579,-5.1626,-5.1631,-5.1676,-5.1656,-5.175,-5.1671,-5.18,-5.1726,-5.1764,-5.1777,-5.1783,-5.1792,-5.1704,-5.1843,-5.208,-5.2105,-5.1799,-5.1797,-5.1794,0,-5.1215,-5.1338,-5.1452,-5.1481,-5.1538,-5.1591,-5.1617,-5.166,-5.1704,-5.1762,-5.1791,-5.1858,-5.1895,-5.1947,-5.1945,-5.1888,-5.2075,-5.1996,-5.2081,-5.2081,-5.2122,-5.2119,-5.2368,-5.2146,-5.2146,-5.2146,-5.2145,0,-5.1408,-5.151,-5.1518,-5.1588,-5.17,-5.1693,-5.1804,-5.1824,-5.1863,-5.1934,-5.1904,-5.1972,-5.1965,-5.2033,-5.2032,-5.2138,-5.2155,-5.216,-5.2159,-5.2163,-5.2163,-5.2188,-5.2176,-5.2152,-5.2151,-5.2149,-5.2148,0,-5.159,-5.16,-5.1721,-5.1766,-5.1779,-5.186,-5.1896,-5.1962,-5.1972,-5.2063,-5.2084,-5.21,-5.2178,-5.2181,-5.2271,-5.227,-5.2399,-5.2385,-5.2384,-5.2381,-5.2466,-5.2458,-5.2739,-5.2775,-5.253,-5.2533,-5.2535,0,-5.1713,-5.1791,-5.1843,-5.1891,-5.192,-5.1996,-5.2042,-5.2037,-5.2086,-5.2146,-5.2204,-5.228,-5.234,-5.2466,-5.2484,-5.2552,-5.2539,-5.2633,-5.2549,-5.2551,-5.254,-5.2536,-5.2543,-5.2649,-5.2652,-5.2654,-5.2656,0,-5.193,-5.1931,-5.2,-5.207,-5.2126,-5.2181,-5.2232,-5.2271,-5.2272,-5.2328,-5.2409,-5.2456,-5.2548,-5.2623,-5.2689,-5.2713,-5.2685,-5.2683,-5.2706,-5.2711,-5.2707,-5.271,-5.2429,-5.2676,-5.2674,-5.2673,-5.2671,-5.2671,-5.2086,-5.2153,-5.2201,-5.2278,-5.2316,-5.2365,-5.2429,-5.2448,-5.2515,-5.2591,-5.2584,-5.2673,-5.2717,-5.2804,-5.2833,-5.2902,-5.2869,-5.2903,-5.2911,-5.292,-5.2929,-5.2697,-5.2914,-5.2913,-5.2912,-5.2912,-5.2912,0,-5.2302,-5.2331,-5.2402,-5.2475,-5.2535,-5.2505,-5.256,-5.2611,-5.2691,-5.2736,-5.2797,-5.2889,-5.2961,-5.2986,-5.3056,-5.3106,-5.3094,-5.3124,-5.312,-5.3126,-5.2954,-5.2927,-5.3132,-5.3132,-5.3132,-5.3132,-5.3132,-5.3132,-5.2421,-5.2533,-5.254,-5.267,-5.2698,-5.2787,-5.282,-5.2864,-5.29,-5.3005,-5.3066,-5.3082,-5.3118,-5.319,-5.3255,-5.326,-5.3287,-5.3322,-5.3322,-5.316,-5.3138,-5.3117,-5.3092,-5.3328,-5.3329,-5.3489,-5.349,-5.3491]}]]